sat.trackr.live / text

‹ back to catalog

KUIPER-00483

NORAD 68878 · 2026-095Q

PAYLOAD ACTIVE UNKNOWN

§ Identity

Operator
Country
US
Launch date
2026-04-28
Launch site
AFETR
Launch vehicle
Mass (kg)
RCS (m²)

External: N2YO · Heavens-Above · Gunter

§ Orbital elements

Epoch: 2026-09-20T04:15:03.600864Z

Period
97.31 min
Inclination
51.8984°
Eccentricity
0.0001682
Mean motion
14.79860867 rev/d
Perigee alt
628.6 km
Apogee alt
630.9 km
Semi-major
7,007.9 km
B*
3.2734e-4
RAAN
193.0809°
Arg perigee
6.5579°
Mean anomaly
353.5405°
Rev number
2,164

§ Raw data

KUIPER-004831 68878U 26095Q   26263.17712501  .00002271  00000+0  32734-3 0  99952 68878  51.8984 193.0809 0001682   6.5579 353.5405 14.79860867 21647

JSON: /api/v1/satellites/68878 · /tle

For live sub-satellite position, see the globe view (requires WebGL).

§ Visibility from observer

Set your observer location to see the next 7 days of passes ≥ 10°. The values pass through the URL so the page stays shareable.

No JS? Fill the form by hand. The geolocation button needs JavaScript.